GW5072 Weather Reports


time (UTC)temp
F
wind
direction
speed
knots
gust
knots
rain 1hr
in
rain 24hr
in
rain mn
in
humidity
%
barometer
mb
20260831214013 96 170 0.0 0.9 0.00 0.00 0.00 48 1014.1
20260831213507 97 121 0.0 0.9 0.00 0.00 0.00 47 1014.2
20260831213030 97 157 0.0 0.9 0.00 0.00 0.00 46 1014.1
20260831212513 98 63 0.0 1.7 0.00 0.00 0.00 45 1014.0
20260831212007 99 79 0.0 1.7 0.00 0.00 0.00 43 1014.1
20260831211504 100 178 0.0 1.7 0.00 0.00 0.00 43 1014.2
20260831211003 102 349 0.0 0.9 0.00 0.00 0.00 42 1014.0
20260831210504 102 354 0.0 1.7 0.00 0.00 0.00 42 1014.1
20260831210005 101 52 0.0 1.7 0.00 0.00 0.00 44 1014.3
20260831205508 100 205 0.0 1.7 0.00 0.00 0.00 46 1014.3
20260831205004 98 129 0.0 0.9 0.00 0.00 0.00 46 1014.3
20260831204504 97 75 0.0 0.9 0.00 0.00 0.00 47 1014.4
20260831204009 97 77 0.0 0.9 0.00 0.00 0.00 48 1014.6
20260831203504 97 65 0.0 2.6 0.00 0.00 0.00 47 1014.7
20260831203003 98 120 0.0 2.6 0.00 0.00 0.00 45 1014.6
20260831202505 98 78 0.0 2.6 0.00 0.00 0.00 46 1014.6
20260831202004 99 44 0.0 1.7 0.00 0.00 0.00 44 1014.8
20260831201527 99 126 0.0 2.6 0.00 0.00 0.00 45 1014.9
20260831201003 99 115 0.0 2.6 0.00 0.00 0.00 47 1014.9
20260831200502 99 269 0.0 0.9 0.00 0.00 0.00 46 1015.0
20260831200035 98 319 0.0 2.6 0.00 0.00 0.00 47 1015.0
20260831195502 99 47 0.0 2.6 0.00 0.00 0.00 46 1015.2
20260831195002 100 179 0.0 2.6 0.00 0.00 0.00 46 1015.3
20260831194513 100 224 0.0 4.3 0.00 0.00 0.00 47 1015.3
20260831194007 100 88 0.9 5.2 0.00 0.00 0.00 46 1015.3
20260831193510 99 236 1.7 5.2 0.00 0.00 0.00 46 1015.4
20260831193010 99 155 0.0 2.6 0.00 0.00 0.00 47 1015.5
20260831192507 99 40 0.0 2.6 0.00 0.00 0.00 46 1015.5
20260831192010 98 213 0.0 2.6 0.00 0.00 0.00 49 1015.6
20260831191504 97 203 0.9 2.6 0.00 0.00 0.00 50 1015.8
20260831191012 96 98 0.0 0.9 0.00 0.00 0.00 51 1015.9
20260831190506 95 245 0.0 1.7 0.00 0.00 0.00 52 1015.9
20260831190006 95 254 0.0 1.7 0.00 0.00 0.00 52 1016.0
20260831185510 95 73 0.0 1.7 0.00 0.00 0.00 52 1016.1
20260831185005 95 51 0.0 1.7 0.00 0.00 0.00 52 1016.2
20260831184511 95 225 0.0 1.7 0.00 0.00 0.00 52 1016.2
20260831184007 96 54 0.0 1.7 0.00 0.00 0.00 53 1016.3
20260831183502 96 88 0.0 1.7 0.00 0.00 0.00 52 1016.4
20260831183035 96 240 0.0 1.7 0.00 0.00 0.00 53 1016.4
20260831182510 96 206 0.0 0.9 0.00 0.00 0.00 50 1016.4
20260831182003 97 300 0.0 3.5 0.00 0.00 0.00 49 1016.6
20260831181520 98 200 0.0 3.5 0.00 0.00 0.00 49 1016.5
20260831181003 97 217 0.0 3.5 0.00 0.00 0.00 50 1016.6
20260831180503 96 238 0.0 1.7 0.00 0.00 0.00 50 1016.7
20260831180019 95 137 0.0 1.7 0.00 0.00 0.00 52 1016.8
20260831175505 94 113 0.0 0.9 0.00 0.00 0.00 56 1016.7
20260831175013 94 209 0.0 0.9 0.00 0.00 0.00 55 1016.8
20260831174516 95 216 0.0 1.7 0.00 0.00 0.00 52 1017.0
20260831174006 97 323 0.0 1.7 0.00 0.00 0.00 52 1017.0
20260831173510 96 237 0.0 1.7 0.00 0.00 0.00 53 1017.1
20260831173007 96 238 0.0 0.9 0.00 0.00 0.00 55 1017.2
20260831172514 94 210 0.0 1.7 0.00 0.00 0.00 57 1017.2
20260831172008 93 217 0.0 1.7 0.00 0.00 0.00 58 1017.2
20260831171508 93 20 0.0 0.9 0.00 0.00 0.00 58 1017.3
20260831171011 92 200 0.0 0.9 0.00 0.00 0.00 60 1017.3
20260831170508 90 217 0.0 0.9 0.00 0.00 0.00 62 1017.3
20260831170006 90 212 0.0 0.9 0.00 0.00 0.00 64 1017.4
20260831165510 89 208 0.0 0.9 0.00 0.00 0.00 64 1017.5
20260831165005 89 274 0.0 0.9 0.00 0.00 0.00 65 1017.5
20260831164530 89 253 0.0 0.9 0.00 0.00 0.00 65 1017.4
20260831164011 89 252 0.0 0.9 0.00 0.00 0.00 65 1017.5
20260831163503 88 216 0.0 0.9 0.00 0.00 0.00 67 1017.5
20260831163038 88 215 0.0 0.9 0.00 0.00 0.00 67 1017.6
20260831162507 88 212 0.0 0.9 0.00 0.00 0.00 66 1017.6
20260831162002 88 219 0.0 0.9 0.00 0.00 0.00 65 1017.5
20260831161524 88 205 0.0 1.7 0.00 0.00 0.00 66 1017.5
20260831161005 88 86 0.0 1.7 0.00 0.00 0.00 67 1017.7
20260831160514 88 77 0.0 1.7 0.00 0.00 0.00 66 1017.6
20260831160034 87 246 0.0 1.7 0.00 0.00 0.00 67 1017.6
20260831155506 87 213 0.0 1.7 0.00 0.00 0.00 67 1017.6
20260831155014 87 231 0.0 0.9 0.00 0.00 0.00 68 1017.6
20260831154540 86 231 0.0 0.9 0.00 0.00 0.00 70 1017.6
20260831154015 86 229 0.0 0.9 0.00 0.00 0.00 71 1017.5
20260831153510 85 236 0.0 0.9 0.00 0.00 0.00 72 1017.5
20260831153011 85 218 0.0 0.9 0.00 0.00 0.00 71 1017.4
20260831152515 85 219 0.0 1.7 0.00 0.00 0.00 74 1017.4
20260831152009 84 215 0.0 1.7 0.00 0.00 0.00 74 1017.5
20260831151518 84 207 0.0 0.9 0.00 0.00 0.00 76 1017.3
20260831151017 83 204 0.0 0.0 0.00 0.00 0.00 81 1017.3
20260831150508 83 204 0.0 0.0 0.00 0.00 0.00 83 1017.4
20260831150032 82 204 0.0 1.7 0.00 0.00 0.00 83 1017.4
20260831145511 82 205 0.0 1.7 0.00 0.00 0.00 85 1017.4
20260831145007 81 212 0.0 0.9 0.00 0.00 0.00 87 1017.3
20260831144528 80 211 0.0 0.9 0.00 0.00 0.00 89 1017.3
20260831144006 80 212 0.0 0.9 0.00 0.00 0.00 90 1017.3
20260831143503 80 212 0.0 0.9 0.00 0.00 0.00 92 1017.3
20260831143028 79 212 0.0 0.9 0.00 0.00 0.00 93 1017.3
20260831142508 79 203 0.0 0.0 0.00 0.00 0.00 94 1017.2
20260831142018 79 214 0.0 0.0 0.00 0.00 0.00 95 1017.2
20260831141526 78 214 0.0 0.0 0.00 0.00 0.00 95 1017.1
20260831141005 78 214 0.0 0.0 0.00 0.00 0.00 96 1017.2
20260831140512 78 219 0.0 0.0 0.00 0.00 0.00 96 1017.1
20260831140034 78 219 0.0 0.0 0.00 0.00 0.00 96 1017.2
20260831135507 77 219 0.0 0.0 0.00 0.00 0.00 96 1017.1
20260831135013 77 219 0.0 0.0 0.00 0.00 0.00 96 1017.0
20260831134518 77 219 0.0 0.0 0.00 0.00 0.00 96 1016.7
20260831134015 77 219 0.0 0.0 0.00 0.00 0.00 96 1016.7
20260831133509 76 219 0.0 0.0 0.00 0.00 0.00 96 1016.7
20260831133011 76 219 0.0 0.0 0.00 0.00 0.00 96 1016.9
20260831132515 76 219 0.0 0.0 0.00 0.00 0.00 96 1017.0
20260831132012 75 219 0.0 0.0 0.00 0.00 0.00 96 1016.9
20260831131540 75 219 0.0 0.0 0.00 0.00 0.00 96 1016.7
20260831131016 74 219 0.0 0.0 0.00 0.00 0.00 96 1016.6
20260831130507 74 219 0.0 0.0 0.00 0.00 0.00 96 1016.7
20260831130037 74 219 0.0 0.0 0.00 0.00 0.00 96 1016.7
20260831125510 73 219 0.0 0.0 0.00 0.00 0.00 96 1016.6
20260831125008 73 219 0.0 0.0 0.00 0.00 0.00 96 1016.6
20260831124534 73 219 0.0 0.0 0.00 0.00 0.00 96 1016.5
20260831124011 73 219 0.0 0.0 0.00 0.00 0.00 96 1016.4
20260831123515 73 219 0.0 0.0 0.00 0.00 0.00 95 1016.4
20260831123027 73 219 0.0 0.0 0.00 0.00 0.00 96 1016.4
20260831122509 73 219 0.0 0.0 0.00 0.00 0.00 96 1016.3
20260831122014 73 219 0.0 0.0 0.00 0.00 0.00 95 1016.1
20260831121527 73 219 0.0 0.0 0.00 0.00 0.00 95 1016.1
20260831121007 73 219 0.0 0.0 0.00 0.00 0.00 95 1016.0
20260831120502 73 219 0.0 0.0 0.00 0.00 0.00 95 1016.0
20260831120030 73 219 0.0 0.0 0.00 0.00 0.00 95 1015.9
20260831115508 73 219 0.0 0.0 0.00 0.00 0.00 95 1015.9
20260831115014 73 219 0.0 0.0 0.00 0.00 0.00 95 1015.7
20260831114517 73 219 0.0 0.0 0.00 0.00 0.00 95 1015.6
20260831114003 73 219 0.0 0.0 0.00 0.00 0.00 95 1015.7
20260831113512 73 219 0.0 0.0 0.00 0.00 0.00 95 1015.8
20260831113015 73 219 0.0 0.0 0.00 0.00 0.00 95 1015.7
20260831112503 73 219 0.0 0.0 0.00 0.00 0.00 95 1015.7
20260831112011 73 219 0.0 0.0 0.00 0.00 0.00 95 1015.7
20260831111516 73 219 0.0 0.0 0.00 0.00 0.00 95 1015.7
20260831111015 73 219 0.0 0.0 0.00 0.00 0.00 95 1015.9
20260831110509 73 219 0.0 0.0 0.00 0.00 0.00 95 1015.8
20260831110010 73 219 0.0 0.0 0.00 0.00 0.00 95 1015.7
20260831105510 73 219 0.0 0.0 0.00 0.00 0.00 95 1015.7
20260831105006 73 219 0.0 0.0 0.00 0.00 0.00 94 1015.7
20260831104530 73 219 0.0 0.0 0.00 0.00 0.00 94 1015.7
20260831104009 73 219 0.0 0.0 0.00 0.00 0.00 94 1015.7
20260831103503 73 219 0.0 0.0 0.00 0.00 0.00 94 1015.7
20260831103028 73 219 0.0 0.0 0.00 0.00 0.00 94 1015.7
20260831102507 74 219 0.0 0.0 0.00 0.00 0.00 94 1015.6
20260831102004 74 219 0.0 0.0 0.00 0.00 0.00 94 1015.8
20260831101528 74 219 0.0 0.0 0.00 0.00 0.00 94 1015.8
20260831101008 74 219 0.0 0.0 0.00 0.00 0.00 94 1015.8
20260831100519 74 219 0.0 0.0 0.00 0.00 0.00 94 1015.8
20260831100025 74 219 0.0 0.0 0.00 0.00 0.00 94 1015.8
20260831095507 74 219 0.0 0.0 0.00 0.00 0.00 94 1015.8
20260831095013 74 219 0.0 0.0 0.00 0.00 0.00 94 1015.7
20260831094518 74 219 0.0 0.0 0.00 0.00 0.00 94 1015.7
20260831094006 74 219 0.0 0.0 0.00 0.00 0.00 94 1015.7
20260831093514 74 219 0.0 0.0 0.00 0.00 0.00 94 1015.7
20260831093016 74 219 0.0 0.0 0.00 0.00 0.00 94 1015.7
20260831092515 74 219 0.0 0.0 0.00 0.00 0.00 94 1015.7
20260831092013 74 219 0.0 0.0 0.00 0.00 0.00 93 1015.6
20260831091514 75 219 0.0 0.0 0.00 0.00 0.00 93 1015.6
20260831091014 75 219 0.0 0.0 0.00 0.00 0.00 93 1015.6
20260831090510 75 219 0.0 0.0 0.00 0.00 0.00 93 1015.7
20260831090038 75 219 0.0 0.0 0.00 0.00 0.00 93 1015.7
20260831085514 75 219 0.0 0.0 0.00 0.00 0.00 93 1015.5
20260831085008 75 219 0.0 0.0 0.00 0.00 0.00 93 1015.6
20260831084534 75 219 0.0 0.0 0.00 0.00 0.00 93 1015.6
20260831084009 75 219 0.0 0.0 0.00 0.00 0.00 93 1015.6
20260831083507 75 219 0.0 0.0 0.00 0.00 0.00 92 1015.6
20260831083029 75 219 0.0 0.0 0.00 0.00 0.00 92 1015.7
20260831082509 75 219 0.0 0.0 0.00 0.00 0.00 92 1015.7
20260831082015 75 219 0.0 0.0 0.00 0.00 0.00 92 1015.8
20260831081528 76 219 0.0 0.0 0.00 0.00 0.00 92 1015.7
20260831081011 76 219 0.0 0.0 0.00 0.00 0.00 92 1015.8
20260831080518 76 219 0.0 0.0 0.00 0.00 0.00 91 1015.8
20260831080033 76 219 0.0 0.0 0.00 0.00 0.00 91 1015.7
20260831075506 76 219 0.0 0.0 0.00 0.00 0.00 91 1015.8
20260831075016 76 219 0.0 0.0 0.00 0.00 0.00 91 1015.8
20260831074523 76 219 0.0 0.0 0.00 0.00 0.00 91 1015.9
20260831074015 77 219 0.0 0.0 0.00 0.00 0.00 91 1015.7
20260831073514 77 219 0.0 0.0 0.00 0.00 0.00 91 1015.7
20260831073019 77 219 0.0 0.0 0.00 0.00 0.00 91 1015.8
20260831072516 77 219 0.0 0.0 0.00 0.00 0.00 90 1015.9
20260831072013 77 219 0.0 0.0 0.00 0.00 0.00 90 1015.7
20260831071514 77 219 0.0 0.0 0.00 0.00 0.00 90 1015.7
20260831071014 77 219 0.0 0.0 0.00 0.00 0.00 90 1015.9
20260831070514 77 219 0.0 0.0 0.00 0.00 0.00 90 1015.9
20260831070033 77 219 0.0 0.0 0.00 0.00 0.00 90 1015.8
20260831065514 77 219 0.0 0.0 0.00 0.00 0.00 89 1015.9
20260831065010 77 219 0.0 0.0 0.00 0.00 0.00 89 1016.0
20260831064532 77 219 0.0 0.0 0.00 0.00 0.00 89 1016.0
20260831064013 77 219 0.0 0.0 0.00 0.00 0.00 88 1016.0
20260831063518 78 219 0.0 0.0 0.00 0.00 0.00 87 1016.0
20260831063030 78 219 0.0 0.0 0.00 0.00 0.00 87 1016.1
20260831062511 78 219 0.0 0.0 0.00 0.00 0.00 87 1016.0
20260831062017 78 219 0.0 0.0 0.00 0.00 0.00 87 1016.0
20260831061503 78 219 0.0 0.0 0.00 0.00 0.00 87 1015.9
20260831061014 78 219 0.0 0.0 0.00 0.00 0.00 86 1016.0
20260831060504 78 219 0.0 0.0 0.00 0.00 0.00 86 1016.0
20260831060004 79 219 0.0 0.0 0.00 0.00 0.00 86 1016.0
20260831055508 79 219 0.0 0.0 0.00 0.00 0.00 85 1016.0
20260831055004 79 219 0.0 0.0 0.00 0.00 0.00 85 1016.0
20260831054526 79 219 0.0 0.0 0.00 0.00 0.00 84 1016.0
20260831054006 79 220 0.0 0.0 0.00 0.00 0.00 84 1015.9
20260831053503 79 220 0.0 0.0 0.00 0.00 0.00 84 1015.8
20260831053028 80 220 0.0 0.0 0.00 0.00 0.00 84 1015.9
20260831052506 79 220 0.0 0.0 0.00 0.00 0.00 83 1015.9
20260831052003 79 220 0.0 0.0 0.00 0.00 0.00 83 1015.9
20260831051515 79 220 0.0 0.0 0.00 0.00 0.00 83 1015.9
20260831051003 79 219 0.0 0.0 0.00 0.00 0.00 83 1016.0
20260831050512 80 218 0.0 0.0 0.00 0.00 0.00 83 1015.8
20260831050025 80 210 0.0 0.0 0.00 0.00 0.00 82 1015.7
20260831045503 80 210 0.0 0.9 0.00 0.00 0.00 82 1015.9
20260831045010 80 210 0.0 0.9 0.00 0.00 0.00 82 1015.9
20260831044511 79 210 0.0 0.0 0.00 0.00 0.00 82 1015.8
20260831044013 79 210 0.0 0.0 0.00 0.00 0.00 81 1015.8
20260831043509 80 210 0.0 0.0 0.00 0.00 0.00 80 1015.7
20260831043008 80 210 0.0 0.0 0.00 0.00 0.00 80 1015.6
20260831042514 80 210 0.0 0.0 0.00 0.00 0.00 79 1015.7
20260831042007 81 210 0.0 0.0 0.00 0.00 0.00 78 1015.6
20260831041507 81 210 0.0 0.0 0.00 0.00 0.00 78 1015.5
20260831041011 81 210 0.0 0.0 0.00 0.00 0.00 77 1015.5
20260831040505 81 210 0.0 0.0 0.00 0.00 0.00 77 1015.5
20260831040030 82 210 0.0 0.0 0.00 0.00 0.00 76 1015.5
20260831035513 82 210 0.0 0.0 0.00 0.00 0.00 76 1015.3
20260831035002 83 210 0.0 0.0 0.00 0.00 0.00 75 1015.2
20260831034526 83 210 0.0 0.0 0.00 0.00 0.00 75 1015.3
20260831034009 83 210 0.0 1.7 0.00 0.00 0.00 75 1015.2
20260831033503 83 210 0.0 1.7 0.00 0.00 0.00 74 1015.1
20260831033023 83 256 0.0 0.0 0.00 0.00 0.00 74 1015.1
20260831032504 83 256 0.0 0.0 0.00 0.00 0.00 73 1015.2
20260831032016 83 256 0.0 0.0 0.00 0.00 0.00 73 1015.1
20260831031518 83 256 0.0 0.9 0.00 0.00 0.00 73 1015.0
20260831031005 84 256 0.0 0.9 0.00 0.00 0.00 72 1015.0
20260831030513 84 255 0.0 0.9 0.00 0.00 0.00 72 1014.9
20260831030015 84 255 0.0 0.9 0.00 0.00 0.00 72 1014.9
20260831025504 84 254 0.0 0.0 0.00 0.00 0.00 72 1014.7
20260831025012 84 254 0.0 0.0 0.00 0.00 0.00 71 1014.7
20260831024515 84 255 0.0 0.0 0.00 0.00 0.00 70 1014.6
20260831024018 84 193 0.0 0.0 0.00 0.00 0.00 70 1014.5
20260831023511 84 193 0.0 0.0 0.00 0.00 0.00 70 1014.4
20260831023009 84 193 0.0 0.0 0.00 0.00 0.00 69 1014.3
20260831022513 84 193 0.0 0.0 0.00 0.00 0.00 68 1014.2
20260831022005 85 193 0.0 0.0 0.00 0.00 0.00 67 1014.2
20260831021531 85 79 0.0 0.9 0.00 0.00 0.00 67 1014.1
20260831021012 85 79 0.0 0.9 0.00 0.00 0.00 66 1014.1
20260831020508 85 79 0.0 0.9 0.00 0.00 0.00 66 1014.1
20260831020027 85 79 0.0 0.9 0.00 0.00 0.00 66 1014.0
20260831015508 85 79 0.0 0.0 0.00 0.00 0.00 66 1013.9
20260831015005 86 79 0.0 0.0 0.00 0.00 0.00 65 1013.9
20260831014529 86 79 0.0 0.0 0.00 0.00 0.00 64 1013.9
20260831014007 86 79 0.0 0.9 0.00 0.00 0.00 63 1013.9
20260831013514 87 79 0.0 0.9 0.00 0.00 0.00 62 1013.9
20260831013028 87 79 0.0 0.0 0.00 0.00 0.00 60 1013.9
20260831012505 88 79 0.0 0.0 0.00 0.00 0.00 59 1013.8
20260831012014 88 79 0.0 0.0 0.00 0.00 0.00 58 1013.8
20260831011533 89 79 0.0 0.0 0.00 0.00 0.00 58 1013.7
20260831011005 89 78 0.0 0.9 0.00 0.00 0.00 56 1013.6
20260831010514 89 78 0.0 0.9 0.00 0.00 0.00 57 1013.8
20260831010018 89 78 0.0 0.9 0.00 0.00 0.00 56 1013.8
20260831005516 90 89 0.0 0.9 0.00 0.00 0.00 55 1013.6
20260831005015 90 89 0.0 0.9 0.00 0.00 0.00 55 1013.6
20260831004516 91 89 0.0 0.0 0.00 0.00 0.00 56 1013.7
20260831004018 91 89 0.0 0.0 0.00 0.00 0.00 54 1013.6
20260831003510 92 89 0.0 0.0 0.00 0.00 0.00 53 1013.6
20260831003036 92 96 0.0 0.0 0.00 0.00 0.00 52 1013.6
20260831002511 92 92 0.0 0.9 0.00 0.00 0.00 52 1013.5
20260831002007 93 93 0.0 0.9 0.00 0.00 0.00 51 1013.5
20260831001529 93 107 0.0 0.9 0.00 0.00 0.00 50 1013.5
20260831001012 93 103 0.0 0.9 0.00 0.00 0.00 50 1013.6
20260831000507 94 124 0.0 0.9 0.00 0.00 0.00 48 1013.4
20260831000032 94 103 0.0 0.9 0.00 0.00 0.00 47 1013.4
20260830235512 94 164 0.0 0.0 0.00 0.00 0.00 45 1013.5
20260830235017 95 164 0.0 0.9 0.00 0.00 0.00 44 1013.4
20260830234537 95 207 0.0 0.9 0.00 0.00 0.00 45 1013.4
20260830234007 96 220 0.0 0.9 0.00 0.00 0.00 43 1013.5
20260830233514 96 114 0.0 1.7 0.00 0.00 0.00 43 1013.6
20260830233027 97 221 0.0 2.6 0.00 0.00 0.00 42 1013.5
20260830232508 97 143 0.0 2.6 0.00 0.00 0.00 44 1013.5
20260830232014 97 219 0.0 3.5 0.00 0.00 0.00 44 1013.5
20260830231522 97 78 0.0 3.5 0.00 0.00 0.00 43 1013.4
20260830231016 98 141 0.0 1.7 0.00 0.00 0.00 44 1013.6
20260830230515 98 214 0.0 1.7 0.00 0.00 0.00 42 1013.6
20260830230022 98 87 0.0 1.7 0.00 0.00 0.00 42 1013.5
20260830225515 99 219 0.0 1.7 0.00 0.00 0.00 41 1013.6
20260830225012 99 220 0.0 2.6 0.00 0.00 0.00 42 1013.6
20260830224529 99 255 0.0 2.6 0.00 0.00 0.00 41 1013.6
20260830224017 98 79 0.0 0.9 0.00 0.00 0.00 45 1013.6
20260830223514 98 63 0.0 0.9 0.00 0.00 0.00 44 1013.7
20260830223032 98 68 0.0 0.9 0.00 0.00 0.00 43 1013.7
20260830222513 98 96 0.0 1.7 0.00 0.00 0.00 43 1013.7
20260830222010 99 65 0.0 1.7 0.00 0.00 0.00 42 1013.6
20260830221543 100 115 0.0 1.7 0.00 0.00 0.00 42 1013.7
20260830221012 100 112 0.0 1.7 0.00 0.00 0.00 42 1013.7
20260830220519 100 43 0.0 0.9 0.00 0.00 0.00 44 1013.8
20260830220031 99 236 0.0 1.7 0.00 0.00 0.00 44 1013.8
20260830215513 98 45 0.9 2.6 0.00 0.00 0.00 43 1013.7
20260830215017 98 255 0.0 2.6 0.00 0.00 0.00 44 1013.8
20260830214528 98 232 0.0 1.7 0.00 0.00 0.00 44 1013.9